<?xml version="1.0" encoding="utf-8"?>
<gpx xmlns:xsd="http://www.w3.org/2001/XMLSchema" xmlns:xsi="http://www.w3.org/2001/XMLSchema-instance" creator="eT4 META" version="1.1" xsi:schemaLocation="http://www.topografix.com/GPX/1/1 http://www.topografix.com/GPX/1/1/gpx.xsd" xmlns="http://www.topografix.com/GPX/1/1">
  <trk>
    <name>Buchstabenweg „M-O-N-H-E-I-M“</name>
    <trkseg>
      <trkpt lat="48.841413" lon="10.855576">
        <ele>500.71</ele>
        <time>2026-09-01T00:00:00.0000000+00:00</time>
      </trkpt>
      <trkpt lat="48.841398" lon="10.855782">
        <ele>500.59</ele>
        <time>2026-09-01T00:00:00.0000000+00:00</time>
      </trkpt>
      <trkpt lat="48.842052" lon="10.856193">
        <ele>498.71</ele>
        <time>2026-09-01T00:00:00.0000000+00:00</time>
      </trkpt>
      <trkpt lat="48.842342" lon="10.856423">
        <ele>497.11</ele>
        <time>2026-09-01T00:00:00.0000000+00:00</time>
      </trkpt>
      <trkpt lat="48.842544" lon="10.856477">
        <ele>496.12</ele>
        <time>2026-09-01T00:00:00.0000000+00:00</time>
      </trkpt>
      <trkpt lat="48.84278" lon="10.856708">
        <ele>495.12</ele>
        <time>2026-09-01T00:00:00.0000000+00:00</time>
      </trkpt>
      <trkpt lat="48.842988" lon="10.856954">
        <ele>495.17</ele>
        <time>2026-09-01T00:00:00.0000000+00:00</time>
      </trkpt>
      <trkpt lat="48.842858" lon="10.857174">
        <ele>495.25</ele>
        <time>2026-09-01T00:00:00.0000000+00:00</time>
      </trkpt>
      <trkpt lat="48.84275" lon="10.857276">
        <ele>495.17</ele>
        <time>2026-09-01T00:00:00.0000000+00:00</time>
      </trkpt>
      <trkpt lat="48.842628" lon="10.857271">
        <ele>495.01</ele>
        <time>2026-09-01T00:00:00.0000000+00:00</time>
      </trkpt>
      <trkpt lat="48.842367" lon="10.857255">
        <ele>495.55</ele>
        <time>2026-09-01T00:00:00.0000000+00:00</time>
      </trkpt>
      <trkpt lat="48.842321" lon="10.857142">
        <ele>495.85</ele>
        <time>2026-09-01T00:00:00.0000000+00:00</time>
      </trkpt>
      <trkpt lat="48.842275" lon="10.856997">
        <ele>496.28</ele>
        <time>2026-09-01T00:00:00.0000000+00:00</time>
      </trkpt>
      <trkpt lat="48.842141" lon="10.856933">
        <ele>496.94</ele>
        <time>2026-09-01T00:00:00.0000000+00:00</time>
      </trkpt>
      <trkpt lat="48.841912" lon="10.856912">
        <ele>497.93</ele>
        <time>2026-09-01T00:00:00.0000000+00:00</time>
      </trkpt>
      <trkpt lat="48.841894" lon="10.856954">
        <ele>497.83</ele>
        <time>2026-09-01T00:00:00.0000000+00:00</time>
      </trkpt>
    </trkseg>
  </trk>
</gpx>